Location: Kott?ru
(16.6209°N, 80.6208°E)
Time: 14:27:37
(UTC+00:00)

Cosmos 2263 Rocket - Pass Details

Date: 18 September 2020
Orbit: 822 x 850 km, 71.0° (Epoch: 30 October)

Event Time Altitude Azimuth Distance (km) Brightness Sun altitude
Rises 23:23:53 0° 349° (N) 3,393 5.3 -15.7°
Reaches altitude 10° 23:26:21 10° 353° (N) 2,461 4.6 -15.1°
Maximum altitude 23:31:56 60° 73° (ENE) 966 2.8 -13.8°
Drops below altitude 10° 23:37:30 10° 152° (SSE) 2,466 4.9 -12.5°
Sets 23:39:59 0° 156° (SSE) 3,401 5.6 -11.9°
